This demonstration page uses our WeatherBlox Daily Observations layout. Learn more.

Left ArrowRight Arrow

53.62937, 11.41316

Hourly Observations for September 1, 2021

Temp ( °F °C ) Dew Point ( °F °C ) Humidity (%) Winds ( mph kmh ) Pressure ( in mb ) Visibility ( mi km ) Precip ( " mm )
7:50 am 07:50 Mostly Cloudy with Mist and Fog 57 14 57 14 100 100 WSW 6 9 30.27 1025 3 4 N/A
8:20 am 08:20 Mostly Cloudy with Mist and Fog 57 14 55 13 94 94 WSW 5 7 30.27 1025 3 5 N/A
8:50 am 08:50 Mostly Cloudy 57 14 57 14 100 100 WSW 3 6 30.27 1025 4 6 N/A
9:20 am 09:20 Mostly Cloudy 57 14 57 14 100 100 WSW 3 6 30.30 1026 6 9 N/A
9:50 am 09:50 Mostly Cloudy 57 14 57 14 100 100 VRB 5 7 30.30 1026 30 48 N/A
10:20 am 10:20 Mostly Cloudy 59 15 57 14 94 94 VRB 3 6 30.30 1026 30 48 N/A
10:50 am 10:50 Mostly Sunny 61 16 57 14 88 88 WSW 7 11 30.30 1026 30 48 N/A
11:20 am 11:20 Mostly Sunny 64 18 57 14 78 78 WSW 6 9 30.30 1026 30 48 N/A
11:50 am 11:50 Mostly Sunny 66 19 57 14 73 73 VRB 3 6 30.30 1026 30 48 N/A
12:20 pm 12:20 Mostly Sunny 68 20 57 14 69 69 VRB 5 7 30.30 1026 7 11 N/A
12:50 pm 12:50 Mostly Sunny 68 20 57 14 69 69 VRB 3 6 30.30 1026 7 11 N/A
1:20 pm 13:20 Mostly Sunny 70 21 55 13 60 60 VRB 3 6 30.30 1026 7 11 N/A
1:50 pm 13:50 Mostly Sunny 70 21 55 13 60 60 VRB 3 6 30.30 1026 7 11 N/A
2:20 pm 14:20 Mostly Sunny 72 22 55 13 57 57 VRB 5 7 30.30 1026 7 11 N/A
2:50 pm 14:50 Mostly Sunny 72 22 52 11 50 50 VRB 3 6 30.30 1026 7 11 N/A
3:20 pm 15:20 Mostly Sunny 72 22 54 12 53 53 WSW 6 9 30.30 1026 7 11 N/A
3:50 pm 15:50 Mostly Sunny 72 22 54 12 53 53 VRB 5 7 30.30 1026 7 11 N/A
4:20 pm 16:20 Mostly Sunny 72 22 54 12 53 53 VRB 5 7 30.27 1025 7 11 N/A
4:50 pm 16:50 Mostly Sunny 73 23 55 13 53 53 VRB 3 6 30.27 1025 7 11 N/A
5:20 pm 17:20 Mostly Sunny 73 23 52 11 47 47 VRB 3 6 30.27 1025 7 11 N/A
5:50 pm 17:50 Mostly Sunny 73 23 55 13 53 53 VRB 2 4 30.27 1025 7 11 N/A
6:20 pm 18:20 Mostly Sunny 73 23 55 13 53 53 VRB 2 4 30.27 1025 7 11 N/A
6:50 pm 18:50 Mostly Sunny 73 23 55 13 53 53 VRB 2 4 30.27 1025 7 11 N/A
7:20 pm 19:20 Mostly Sunny 72 22 57 14 61 61 VRB 1 2 30.27 1025 7 11 N/A
7:50 pm 19:50 Mostly Sunny 70 21 55 13 60 60 VRB 2 4 30.27 1025 7 11 N/A
8:20 pm 20:20 Mostly Clear 66 19 57 14 73 73 WSW 3 6 30.27 1025 7 11 N/A
8:50 pm 20:50 Mostly Clear 64 18 59 15 83 83 WSW 3 6 30.30 1026 7 11 N/A
9:20 pm 21:20 Mostly Clear 64 18 59 15 83 83 WSW 3 6 30.30 1026 7 11 N/A
9:50 pm 21:50 Mostly Clear 63 17 59 15 88 88 WSW 3 6 30.30 1026 7 11 N/A

Powered by AerisWeather